QPF
0.00 0.00 0.00 0.00 0.00 0.00 0.00 0.00 0.00 0.00 0.00 0.00 0.01 0.01 0.01 0.01 0.03 0.05 0.05 0.04 0.03 0.03 0.04 0.05 0.05 0.05 0.04 0.04 0.05 0.05 0.05 0.06 0.06 0.06 0.07 0.08 0.09 0.09 0.09 0.08 0.09 0.09 0.08 0.08
0.00 0.00 0.00 0.00 0.00 0.00 0.00 0.00 0.00 0.00 0.00 0.00 0.01 0.01 0.01 0.01 0.02 0.03 0.03 0.03 0.02 0.03 0.03 0.03 0.05 0.05 0.05 0.06 0.06 0.06 0.05 0.05 0.06 0.07 0.08 0.08 0.08 0.08 0.08 0.08 0.08 0.08 0.08 0.08
0.00 0.00 0.00 0.00 0.00 0.00 0.00 0.00 0.01 0.01 0.01 0.01 0.01 0.01 0.01 0.01 0.01 0.01 0.01 0.02 0.02 0.02 0.02 0.02 0.04 0.05 0.04 0.04 0.04 0.05 0.05 0.04 0.05 0.05 0.06 0.07 0.08 0.06 0.06 0.07 0.07 0.07 0.07 0.07
0.00 0.00 0.00 0.00 0.00 0.00 0.01 0.01 0.01 0.01 0.01 0.01 0.02 0.03 0.01 0.01 0.01 0.01 0.01 0.01 0.02 0.02 0.02 0.02 0.02 0.03 0.02 0.02 0.03 0.04 0.04 0.04 0.04 0.04 0.04 0.06 0.07 0.07 0.07 0.08 0.06 0.06 0.05 0.06
0.00 0.00 0.00 0.00 0.00 0.00 0.01 0.01 0.01 0.01 0.01 0.01 0.01 0.02 0.01 0.01 0.01 0.01 0.01 0.01 0.01 0.02 0.02 0.02 0.03 0.02 0.02 0.02 0.02 0.02 0.03 0.03 0.03 0.03 0.03 0.05 0.06 0.07 0.06 0.05 0.05 0.05 0.05 0.04
0.00 0.00 0.00 0.00 0.00 0.00 0.01 0.01 0.01 0.00 0.01 0.01 0.00 0.01 0.00 0.00 0.00 0.01 0.01 0.01 0.02 0.02 0.02 0.02 0.02 0.02 0.02 0.02 0.02 0.01 0.02 0.02 0.03 0.03 0.03 0.06 0.07 0.07 0.06 0.05 0.04 0.04 0.04 0.04
0.00 0.00 0.00 0.00 0.00 0.00 0.00 0.00 0.01 0.01 0.01 0.00 0.00 0.00 0.00 0.00 0.00 0.01 0.01 0.02 0.02 0.02 0.01 0.01 0.01 0.01 0.01 0.02 0.01 0.01 0.01 0.02 0.04 0.04 0.06 0.08 0.09 0.07 0.05 0.04 0.04 0.04 0.03 0.03
0.00 0.00 0.00 0.00 0.00 0.00 0.00 0.00 0.00 0.00 0.00 0.00 0.00 0.00 0.00 0.00 0.00 0.00 0.01 0.01 0.01 0.00 0.00 0.01 0.01 0.01 0.02 0.02 0.02 0.01 0.02 0.03 0.04 0.05 0.07 0.09 0.09 0.08 0.06 0.04 0.04 0.04 0.03 0.03
0.00 0.00 0.00 0.00 0.00 0.00 0.00 0.00 0.00 0.00 0.00 0.00 0.00 0.00 0.00 0.00 0.00 0.00 0.00 0.00 0.00 0.00 0.00 0.00 0.00 0.01 0.01 0.01 0.02 0.01 0.02 0.04 0.06 0.06 0.07 0.08 0.09 0.09 0.05 0.03 0.03 0.03 0.03 0.03
0.00 0.00 0.00 0.00 0.00 0.00 0.00 0.00 0.00 0.00 0.01 0.01 0.00 0.00 0.00 0.00 0.00 0.00 0.00 0.00 0.00 0.00 0.00 0.00 0.00 0.01 0.02 0.02 0.02 0.02 0.04 0.06 0.06 0.08 0.10 0.09 0.08 0.06 0.05 0.04 0.03 0.03 0.03 0.03
0.01 0.01 0.00 0.00 0.00 0.00 0.00 0.00 0.00 0.00 0.00 0.01 0.01 0.00 0.00 0.00 0.00 0.00 0.00 0.00 0.00 0.00 0.00 0.00 0.01 0.01 0.02 0.02 0.02 0.03 0.05 0.06 0.06 0.05 0.06 0.08 0.07 0.05 0.04 0.04 0.03 0.02 0.03 0.03
0.00 0.01 0.00 0.00 0.00 0.00 0.00 0.01 0.01 0.01 0.01 0.01 0.01 0.01 0.00 0.00 0.00 0.00 0.00 0.00 0.00 0.00 0.00 0.01 0.01 0.01 0.01 0.02 0.02 0.03 0.04 0.04 0.04 0.04 0.04 0.04 0.04 0.04 0.03 0.04 0.03 0.02 0.02 0.02
0.00 0.01 0.01 0.01 0.01 0.01 0.01 0.01 0.00 0.01 0.01 0.01 0.01 0.01 0.00 0.00 0.00 0.00 0.00 0.00 0.00 0.00 0.01 0.01 0.02 0.02 0.02 0.02 0.03 0.04 0.03 0.03 0.03 0.03 0.02 0.02 0.02 0.02 0.02 0.03 0.02 0.02 0.02 0.03
0.00 0.01 0.02 0.02 0.02 0.01 0.01 0.01 0.01 0.01 0.02 0.02 0.01 0.01 0.00 0.00 0.00 0.00 0.00 0.00 0.01 0.01 0.01 0.02 0.03 0.02 0.02 0.03 0.04 0.04 0.04 0.03 0.03 0.03 0.02 0.02 0.02 0.02 0.02 0.02 0.03 0.02 0.03 0.03
0.00 0.01 0.01 0.01 0.01 0.01 0.01 0.01 0.01 0.01 0.01 0.01 0.00 0.00 0.00 0.00 0.00 0.00 0.00 0.00 0.01 0.01 0.02 0.02 0.02 0.02 0.03 0.02 0.02 0.02 0.02 0.03 0.03 0.03 0.02 0.01 0.02 0.03 0.03 0.03 0.03 0.02 0.02 0.02
0.00 0.01 0.01 0.01 0.01 0.01 0.01 0.01 0.01 0.01 0.00 0.00 0.01 0.01 0.00 0.00 0.00 0.01 0.01 0.01 0.01 0.02 0.02 0.02 0.03 0.03 0.03 0.03 0.03 0.03 0.03 0.02 0.02 0.02 0.02 0.02 0.04 0.05 0.04 0.03 0.04 0.04 0.04 0.04
0.01 0.01 0.01 0.01 0.01 0.01 0.01 0.01 0.03 0.02 0.01 0.01 0.02 0.02 0.01 0.01 0.01 0.01 0.01 0.01 0.02 0.02 0.02 0.03 0.03 0.03 0.03 0.03 0.03 0.04 0.04 0.03 0.02 0.03 0.02 0.02 0.04 0.06 0.05 0.04 0.04 0.05 0.05 0.05
0.01 0.01 0.01 0.01 0.01 0.02 0.03 0.01 0.02 0.03 0.04 0.02 0.02 0.02 0.02 0.01 0.01 0.01 0.02 0.02 0.02 0.03 0.03 0.03 0.03 0.04 0.04 0.03 0.03 0.04 0.04 0.03 0.03 0.03 0.03 0.03 0.04 0.05 0.04 0.04 0.03 0.04 0.04 0.04
0.00 0.01 0.02 0.01 0.02 0.02 0.01 0.01 0.01 0.02 0.03 0.01 0.02 0.01 0.01 0.02 0.01 0.02 0.03 0.03 0.03 0.03 0.03 0.03 0.04 0.05 0.04 0.04 0.04 0.04 0.03 0.02 0.03 0.04 0.04 0.04 0.04 0.04 0.03 0.03 0.02 0.02 0.02 0.03
0.01 0.01 0.02 0.02 0.02 0.03 0.03 0.01 0.01 0.02 0.04 0.02 0.01 0.01 0.01 0.02 0.03 0.04 0.05 0.05 0.04 0.05 0.06 0.05 0.04 0.05 0.05 0.03 0.04 0.03 0.03 0.03 0.04 0.06 0.05 0.05 0.05 0.04 0.03 0.02 0.02 0.02 0.02 0.02
0.01 0.02 0.02 0.02 0.02 0.03 0.03 0.04 0.04 0.07 0.06 0.03 0.02 0.01 0.02 0.02 0.04 0.06 0.07 0.07 0.05 0.06 0.07 0.06 0.05 0.04 0.03 0.03 0.03 0.03 0.04 0.03 0.04 0.05 0.04 0.04 0.05 0.04 0.02 0.02 0.01 0.02 0.02 0.02
0.01 0.02 0.02 0.02 0.03 0.04 0.03 0.04 0.06 0.06 0.03 0.02 0.01 0.01 0.01 0.02 0.03 0.06 0.08 0.07 0.04 0.05 0.05 0.04 0.03 0.03 0.02 0.03 0.03 0.02 0.03 0.03 0.03 0.03 0.03 0.02 0.02 0.02 0.01 0.01 0.01 0.01 0.01 0.01
0.01 0.02 0.02 0.03 0.03 0.03 0.02 0.03 0.04 0.04 0.02 0.01 0.02 0.02 0.02 0.01 0.03 0.06 0.07 0.06 0.04 0.04 0.03 0.02 0.02 0.02 0.02 0.03 0.03 0.02 0.02 0.02 0.02 0.02 0.02 0.02 0.01 0.01 0.01 0.01 0.01 0.01 0.01 0.01
0.01 0.01 0.02 0.02 0.01 0.01 0.01 0.02 0.03 0.02 0.01 0.01 0.02 0.02 0.01 0.01 0.02 0.05 0.05 0.04 0.02 0.02 0.01 0.01 0.01 0.01 0.02 0.02 0.03 0.02 0.02 0.02 0.02 0.02 0.01 0.01 0.01 0.01 0.01 0.01 0.01 0.01 0.01 0.01
0.01 0.02 0.02 0.01 0.01 0.01 0.01 0.01 0.02 0.01 0.01 0.01 0.01 0.00 0.01 0.01 0.02 0.03 0.03 0.02 0.01 0.01 0.01 0.01 0.01 0.01 0.02 0.02 0.03 0.02 0.02 0.02 0.02 0.02 0.01 0.01 0.01 0.01 0.00 0.01 0.01 0.01 0.01 0.01
0.01 0.02 0.03 0.02 0.02 0.02 0.01 0.01 0.01 0.01 0.00 0.01 0.01 0.00 0.00 0.01 0.02 0.02 0.02 0.01 0.01 0.01 0.01 0.02 0.02 0.02 0.03 0.03 0.03 0.03 0.01 0.01 0.03 0.03 0.02 0.02 0.01 0.01 0.01 0.01 0.01 0.01 0.01 0.00
MSLP
1012.40 1012.63 1012.80 1012.88 1012.86 1012.73 1012.48 1012.13 1011.69 1011.21 1010.73 1010.33 1010.06 1009.98 1010.13 1010.53 1011.14 1011.90 1012.74 1013.56 1014.29 1014.85 1015.20 1015.34 1015.31 1015.14 1014.89 1014.62 1014.34 1014.10 1013.88 1013.66 1013.44 1013.20 1012.94 1012.65 1012.37 1012.10 1011.86 1011.66 1011.48 1011.32 1011.13 1010.92
1012.85 1013.03 1013.14 1013.15 1013.06 1012.86 1012.56 1012.16 1011.71 1011.24 1010.80 1010.46 1010.28 1010.31 1010.58 1011.09 1011.81 1012.68 1013.60 1014.49 1015.25 1015.81 1016.15 1016.25 1016.15 1015.91 1015.59 1015.24 1014.91 1014.62 1014.37 1014.15 1013.93 1013.70 1013.46 1013.18 1012.91 1012.64 1012.38 1012.16 1011.95 1011.74 1011.52 1011.25
1013.20 1013.34 1013.39 1013.35 1013.22 1012.98 1012.66 1012.27 1011.83 1011.40 1011.01 1010.74 1010.63 1010.73 1011.08 1011.66 1012.45 1013.37 1014.33 1015.24 1016.00 1016.55 1016.86 1016.92 1016.77 1016.47 1016.09 1015.69 1015.32 1015.01 1014.76 1014.54 1014.36 1014.16 1013.96 1013.72 1013.48 1013.23 1012.98 1012.75 1012.52 1012.28 1012.01 1011.70
1013.38 1013.48 1013.50 1013.45 1013.31 1013.10 1012.81 1012.46 1012.09 1011.72 1011.40 1011.19 1011.13 1011.27 1011.64 1012.24 1013.02 1013.93 1014.87 1015.76 1016.50 1017.02 1017.29 1017.32 1017.14 1016.80 1016.39 1015.96 1015.58 1015.26 1015.02 1014.84 1014.69 1014.56 1014.40 1014.23 1014.03 1013.81 1013.58 1013.35 1013.11 1012.84 1012.55 1012.20
1013.37 1013.45 1013.48 1013.44 1013.35 1013.20 1013.01 1012.76 1012.49 1012.22 1011.98 1011.81 1011.78 1011.92 1012.26 1012.80 1013.52 1014.36 1015.22 1016.04 1016.73 1017.22 1017.46 1017.47 1017.27 1016.93 1016.51 1016.08 1015.70 1015.40 1015.18 1015.04 1014.95 1014.87 1014.78 1014.66 1014.51 1014.32 1014.12 1013.88 1013.63 1013.35 1013.02 1012.65
1013.21 1013.29 1013.34 1013.36 1013.36 1013.33 1013.26 1013.16 1013.02 1012.85 1012.69 1012.57 1012.54 1012.63 1012.89 1013.33 1013.92 1014.63 1015.39 1016.11 1016.73 1017.17 1017.39 1017.40 1017.22 1016.90 1016.50 1016.10 1015.75 1015.47 1015.29 1015.18 1015.13 1015.10 1015.06 1014.99 1014.87 1014.71 1014.51 1014.27 1014.00 1013.70 1013.36 1012.97
1012.99 1013.07 1013.16 1013.26 1013.37 1013.47 1013.56 1013.61 1013.61 1013.56 1013.48 1013.38 1013.33 1013.35 1013.49 1013.78 1014.22 1014.77 1015.38 1015.99 1016.53 1016.93 1017.15 1017.18 1017.04 1016.76 1016.42 1016.07 1015.75 1015.51 1015.36 1015.28 1015.26 1015.26 1015.24 1015.19 1015.09 1014.93 1014.72 1014.46 1014.17 1013.85 1013.49 1013.10
1012.82 1012.90 1013.03 1013.20 1013.41 1013.64 1013.88 1014.07 1014.20 1014.25 1014.23 1014.15 1014.05 1013.98 1013.99 1014.12 1014.38 1014.76 1015.23 1015.72 1016.19 1016.56 1016.79 1016.86 1016.78 1016.58 1016.31 1016.02 1015.75 1015.54 1015.42 1015.36 1015.34 1015.34 1015.33 1015.28 1015.16 1014.98 1014.74 1014.46 1014.14 1013.79 1013.42 1013.02
1012.81 1012.88 1013.02 1013.23 1013.51 1013.84 1014.17 1014.47 1014.70 1014.82 1014.84 1014.75 1014.60 1014.44 1014.32 1014.30 1014.40 1014.62 1014.96 1015.36 1015.76 1016.12 1016.38 1016.51 1016.51 1016.40 1016.21 1015.98 1015.77 1015.59 1015.48 1015.42 1015.39 1015.38 1015.34 1015.26 1015.11 1014.90 1014.62 1014.29 1013.93 1013.56 1013.18 1012.80
1013.00 1013.03 1013.15 1013.36 1013.65 1014.00 1014.38 1014.73 1015.00 1015.16 1015.18 1015.08 1014.88 1014.65 1014.42 1014.28 1014.25 1014.36 1014.60 1014.93 1015.31 1015.68 1015.98 1016.18 1016.26 1016.24 1016.12 1015.97 1015.80 1015.64 1015.54 1015.46 1015.41 1015.36 1015.29 1015.17 1014.98 1014.72 1014.40 1014.04 1013.65 1013.25 1012.87 1012.50
1013.40 1013.35 1013.40 1013.55 1013.79 1014.10 1014.44 1014.77 1015.02 1015.16 1015.17 1015.04 1014.81 1014.53 1014.25 1014.03 1013.94 1013.98 1014.18 1014.48 1014.86 1015.25 1015.61 1015.88 1016.05 1016.10 1016.06 1015.96 1015.83 1015.69 1015.58 1015.48 1015.40 1015.32 1015.21 1015.05 1014.82 1014.53 1014.18 1013.78 1013.37 1012.96 1012.58 1012.24
1013.91 1013.77 1013.71 1013.74 1013.87 1014.07 1014.32 1014.55 1014.73 1014.82 1014.78 1014.63 1014.38 1014.08 1013.79 1013.58 1013.48 1013.52 1013.72 1014.04 1014.45 1014.89 1015.30 1015.64 1015.87 1015.99 1016.01 1015.95 1015.84 1015.71 1015.58 1015.46 1015.36 1015.25 1015.11 1014.92 1014.68 1014.37 1014.01 1013.61 1013.19 1012.78 1012.41 1012.08
1014.45 1014.19 1014.00 1013.88 1013.86 1013.90 1013.98 1014.08 1014.14 1014.14 1014.05 1013.87 1013.63 1013.36 1013.11 1012.94 1012.89 1012.99 1013.24 1013.62 1014.08 1014.57 1015.04 1015.43 1015.72 1015.88 1015.94 1015.90 1015.81 1015.68 1015.54 1015.41 1015.29 1015.16 1015.01 1014.82 1014.58 1014.28 1013.93 1013.54 1013.14 1012.75 1012.39 1012.08
1014.91 1014.54 1014.21 1013.93 1013.73 1013.59 1013.49 1013.42 1013.35 1013.24 1013.09 1012.89 1012.66 1012.44 1012.27 1012.20 1012.25 1012.44 1012.78 1013.24 1013.76 1014.31 1014.83 1015.26 1015.58 1015.77 1015.85 1015.82 1015.73 1015.60 1015.46 1015.32 1015.19 1015.06 1014.92 1014.75 1014.53 1014.26 1013.94 1013.59 1013.22 1012.85 1012.51 1012.21
1015.25 1014.78 1014.32 1013.90 1013.53 1013.21 1012.94 1012.70 1012.48 1012.26 1012.05 1011.83 1011.63 1011.47 1011.40 1011.44 1011.60 1011.92 1012.36 1012.90 1013.50 1014.10 1014.64 1015.10 1015.44 1015.64 1015.72 1015.69 1015.60 1015.46 1015.32 1015.19 1015.07 1014.96 1014.84 1014.70 1014.52 1014.29 1014.02 1013.70 1013.37 1013.03 1012.71 1012.42
1015.46 1014.93 1014.39 1013.86 1013.35 1012.88 1012.46 1012.06 1011.71 1011.39 1011.11 1010.87 1010.69 1010.60 1010.61 1010.76 1011.04 1011.46 1012.00 1012.62 1013.27 1013.91 1014.48 1014.94 1015.28 1015.48 1015.55 1015.53 1015.43 1015.30 1015.16 1015.04 1014.94 1014.85 1014.76 1014.65 1014.52 1014.33 1014.10 1013.83 1013.53 1013.22 1012.91 1012.63
1015.62 1015.06 1014.48 1013.88 1013.30 1012.72 1012.18 1011.67 1011.21 1010.80 1010.45 1010.18 1010.00 1009.95 1010.02 1010.25 1010.62 1011.12 1011.72 1012.39 1013.08 1013.74 1014.31 1014.78 1015.10 1015.30 1015.36 1015.34 1015.25 1015.13 1015.01 1014.90 1014.82 1014.76 1014.69 1014.62 1014.51 1014.36 1014.16 1013.92 1013.64 1013.35 1013.05 1012.76
1015.81 1015.26 1014.68 1014.08 1013.46 1012.84 1012.23 1011.64 1011.10 1010.61 1010.19 1009.88 1009.68 1009.62 1009.72 1009.97 1010.38 1010.91 1011.54 1012.23 1012.92 1013.58 1014.14 1014.59 1014.91 1015.10 1015.17 1015.15 1015.08 1014.98 1014.88 1014.79 1014.73 1014.69 1014.64 1014.58 1014.49 1014.36 1014.17 1013.94 1013.67 1013.37 1013.08 1012.78
1016.12 1015.61 1015.07 1014.50 1013.90 1013.28 1012.64 1012.01 1011.41 1010.85 1010.37 1009.99 1009.74 1009.64 1009.71 1009.94 1010.33 1010.85 1011.46 1012.13 1012.80 1013.43 1013.97 1014.40 1014.71 1014.90 1014.98 1014.98 1014.93 1014.86 1014.78 1014.73 1014.68 1014.66 1014.62 1014.56 1014.47 1014.32 1014.13 1013.88 1013.60 1013.29 1012.98 1012.68
1016.60 1016.14 1015.66 1015.15 1014.60 1014.00 1013.37 1012.72 1012.08 1011.46 1010.91 1010.46 1010.13 1009.95 1009.94 1010.11 1010.44 1010.90 1011.46 1012.08 1012.70 1013.28 1013.80 1014.21 1014.51 1014.71 1014.81 1014.84 1014.82 1014.79 1014.75 1014.71 1014.69 1014.66 1014.62 1014.55 1014.44 1014.27 1014.04 1013.77 1013.46 1013.14 1012.82 1012.50
1017.25 1016.84 1016.42 1015.96 1015.46 1014.90 1014.30 1013.64 1012.96 1012.30 1011.68 1011.14 1010.72 1010.45 1010.34 1010.42 1010.65 1011.03 1011.50 1012.05 1012.61 1013.15 1013.63 1014.03 1014.33 1014.54 1014.67 1014.73 1014.75 1014.75 1014.74 1014.73 1014.72 1014.69 1014.64 1014.55 1014.41 1014.20 1013.94 1013.64 1013.30 1012.95 1012.61 1012.30
1018.01 1017.63 1017.25 1016.84 1016.38 1015.85 1015.26 1014.60 1013.90 1013.18 1012.50 1011.88 1011.37 1011.00 1010.79 1010.76 1010.89 1011.17 1011.57 1012.04 1012.54 1013.04 1013.49 1013.87 1014.17 1014.40 1014.55 1014.65 1014.71 1014.74 1014.76 1014.77 1014.76 1014.73 1014.66 1014.55 1014.37 1014.14 1013.84 1013.51 1013.14 1012.78 1012.43 1012.11
1018.79 1018.42 1018.06 1017.66 1017.21 1016.69 1016.09 1015.42 1014.69 1013.94 1013.20 1012.51 1011.92 1011.46 1011.17 1011.04 1011.10 1011.30 1011.62 1012.03 1012.48 1012.94 1013.37 1013.74 1014.05 1014.28 1014.46 1014.58 1014.67 1014.72 1014.76 1014.78 1014.77 1014.73 1014.65 1014.51 1014.31 1014.05 1013.73 1013.38 1013.00 1012.62 1012.27 1011.96
1019.52 1019.12 1018.73 1018.31 1017.84 1017.30 1016.68 1015.98 1015.22 1014.42 1013.64 1012.90 1012.26 1011.74 1011.40 1011.22 1011.22 1011.37 1011.64 1012.01 1012.43 1012.86 1013.28 1013.64 1013.95 1014.20 1014.38 1014.51 1014.60 1014.67 1014.71 1014.73 1014.71 1014.66 1014.56 1014.41 1014.20 1013.92 1013.60 1013.24 1012.86 1012.49 1012.14 1011.84
1020.12 1019.67 1019.22 1018.74 1018.22 1017.62 1016.95 1016.20 1015.40 1014.57 1013.76 1013.00 1012.33 1011.80 1011.43 1011.24 1011.22 1011.36 1011.62 1011.98 1012.39 1012.81 1013.22 1013.58 1013.88 1014.12 1014.29 1014.42 1014.51 1014.56 1014.59 1014.59 1014.56 1014.49 1014.38 1014.21 1014.00 1013.72 1013.40 1013.05 1012.69 1012.34 1012.01 1011.72
1020.54 1020.03 1019.50 1018.94 1018.33 1017.66 1016.91 1016.10 1015.26 1014.40 1013.56 1012.80 1012.14 1011.63 1011.28 1011.12 1011.12 1011.28 1011.56 1011.93 1012.35 1012.77 1013.17 1013.52 1013.80 1014.02 1014.18 1014.29 1014.35 1014.37 1014.37 1014.35 1014.29 1014.20 1014.08 1013.90 1013.69 1013.42 1013.12 1012.80 1012.46 1012.13 1011.83 1011.56
Thickness
5762 5758 5752 5755 5759 5759 5756 5752 5749 5754 5762 5756 5752 5752 5756 5759 5757 5754 5752 5750 5748 5747 5748 5745 5740 5737 5734 5730 5726 5724 5721 5717 5715 5713 5710 5708 5705 5702 5700 5697 5693 5690 5688 5686
5754 5749 5757 5760 5758 5754 5751 5746 5747 5752 5757 5751 5748 5748 5756 5755 5753 5753 5749 5746 5744 5742 5741 5737 5733 5731 5727 5724 5721 5719 5716 5713 5711 5708 5705 5703 5699 5696 5693 5690 5686 5683 5681 5679
5746 5752 5757 5753 5750 5746 5747 5745 5745 5743 5749 5751 5744 5741 5747 5751 5751 5749 5747 5745 5743 5739 5736 5732 5729 5726 5723 5720 5717 5715 5711 5708 5705 5703 5701 5697 5692 5689 5686 5683 5680 5677 5675 5673
5750 5754 5751 5747 5746 5745 5740 5751 5746 5741 5737 5739 5739 5728 5740 5746 5742 5742 5741 5740 5738 5736 5733 5729 5725 5722 5719 5717 5714 5710 5707 5703 5700 5697 5694 5690 5685 5681 5678 5675 5673 5670 5667 5665
5745 5748 5745 5741 5743 5744 5742 5748 5744 5740 5737 5733 5737 5728 5737 5743 5735 5737 5737 5736 5734 5732 5730 5725 5721 5717 5715 5712 5710 5706 5701 5697 5694 5692 5688 5684 5680 5676 5672 5668 5664 5662 5660 5658
5747 5753 5749 5744 5747 5746 5744 5740 5740 5739 5737 5720 5730 5724 5726 5737 5732 5731 5732 5730 5729 5727 5725 5722 5718 5713 5709 5708 5705 5701 5696 5691 5688 5685 5681 5677 5672 5667 5663 5660 5657 5655 5654 5652
5736 5744 5748 5747 5737 5740 5737 5726 5717 5717 5717 5720 5731 5722 5725 5733 5733 5729 5726 5725 5724 5723 5720 5716 5712 5708 5704 5702 5699 5696 5691 5686 5682 5678 5674 5670 5665 5661 5657 5653 5651 5649 5648 5646
5721 5723 5738 5739 5732 5726 5728 5724 5707 5696 5702 5714 5723 5719 5727 5730 5729 5726 5724 5720 5718 5716 5715 5711 5707 5703 5699 5696 5692 5689 5686 5681 5677 5672 5667 5663 5659 5656 5652 5648 5645 5643 5642 5640
5715 5716 5733 5734 5735 5730 5722 5724 5725 5710 5709 5704 5715 5722 5725 5723 5720 5718 5716 5713 5710 5709 5708 5705 5702 5698 5694 5690 5686 5683 5679 5675 5671 5666 5661 5656 5652 5649 5646 5642 5639 5638 5635 5634
5714 5703 5721 5727 5729 5728 5725 5721 5712 5704 5689 5689 5703 5711 5713 5713 5711 5711 5709 5707 5705 5703 5701 5698 5696 5692 5689 5685 5682 5678 5674 5669 5665 5661 5656 5652 5647 5643 5640 5638 5633 5631 5629 5628
5710 5698 5707 5714 5712 5710 5712 5709 5707 5707 5703 5688 5683 5701 5719 5713 5711 5708 5707 5704 5700 5697 5695 5693 5690 5688 5685 5682 5678 5673 5669 5665 5660 5656 5651 5646 5643 5639 5635 5632 5629 5627 5624 5622
5701 5697 5694 5704 5717 5718 5710 5705 5701 5687 5688 5694 5689 5695 5714 5710 5708 5705 5702 5699 5696 5692 5690 5688 5685 5682 5679 5677 5673 5669 5665 5661 5656 5651 5647 5642 5638 5634 5631 5628 5625 5623 5619 5617
5692 5685 5679 5691 5700 5706 5702 5702 5699 5694 5688 5686 5683 5692 5708 5704 5701 5700 5695 5692 5688 5685 5684 5682 5679 5676 5674 5671 5669 5665 5661 5656 5652 5648 5643 5637 5633 5630 5627 5624 5621 5618 5615 5613
5687 5681 5676 5673 5681 5692 5690 5693 5695 5691 5684 5682 5686 5690 5696 5692 5691 5690 5688 5685 5682 5679 5678 5676 5673 5670 5669 5666 5664 5661 5656 5652 5647 5643 5638 5634 5629 5626 5623 5620 5617 5614 5611 5609
5682 5678 5682 5685 5690 5689 5688 5687 5689 5687 5686 5681 5684 5685 5685 5685 5683 5682 5680 5678 5674 5672 5671 5669 5666 5665 5663 5661 5659 5656 5652 5648 5643 5639 5634 5631 5626 5623 5620 5616 5613 5610 5608 5606
5675 5671 5675 5677 5685 5685 5682 5683 5684 5683 5683 5682 5681 5680 5682 5681 5679 5675 5672 5670 5667 5666 5666 5663 5661 5659 5657 5655 5653 5651 5648 5643 5639 5635 5632 5628 5624 5620 5617 5614 5611 5608 5605 5602
5669 5664 5663 5669 5680 5678 5672 5678 5678 5678 5679 5677 5672 5672 5676 5672 5669 5666 5664 5663 5661 5660 5660 5659 5656 5654 5653 5652 5650 5647 5644 5640 5636 5632 5629 5625 5622 5618 5615 5612 5609 5605 5602 5599
5659 5658 5660 5665 5666 5655 5672 5683 5678 5674 5672 5672 5668 5668 5668 5666 5666 5664 5662 5659 5656 5655 5656 5655 5653 5651 5650 5649 5647 5645 5642 5638 5634 5630 5627 5624 5620 5616 5613 5609 5606 5603 5600 5596
5662 5655 5655 5658 5657 5661 5670 5673 5670 5665 5664 5666 5663 5662 5663 5664 5663 5662 5659 5656 5653 5653 5653 5651 5650 5648 5647 5646 5645 5642 5639 5636 5632 5629 5625 5622 5618 5614 5610 5607 5604 5601 5598 5595
5661 5656 5651 5651 5644 5646 5657 5667 5671 5665 5657 5662 5660 5657 5658 5657 5655 5656 5654 5652 5651 5650 5649 5648 5647 5645 5644 5643 5642 5640 5637 5633 5630 5627 5624 5621 5617 5612 5609 5606 5602 5600 5596 5594
5649 5648 5647 5645 5643 5652 5657 5662 5662 5646 5645 5653 5655 5654 5653 5651 5650 5650 5650 5649 5647 5647 5646 5646 5645 5642 5641 5640 5639 5636 5635 5631 5628 5626 5623 5618 5614 5611 5608 5604 5601 5599 5596 5593
5641 5640 5640 5640 5636 5641 5652 5651 5643 5641 5648 5649 5650 5651 5649 5647 5647 5646 5646 5645 5644 5644 5643 5643 5642 5640 5640 5639 5637 5635 5632 5630 5627 5624 5620 5617 5613 5610 5608 5603 5600 5598 5594 5592
5638 5638 5637 5637 5639 5645 5646 5643 5644 5645 5644 5646 5648 5649 5647 5644 5644 5643 5642 5642 5641 5641 5641 5641 5640 5639 5638 5637 5635 5633 5630 5628 5625 5621 5618 5615 5612 5609 5606 5602 5600 5597 5594 5593
5636 5635 5631 5631 5641 5643 5643 5643 5643 5643 5642 5644 5646 5646 5646 5643 5642 5641 5641 5640 5639 5639 5639 5640 5639 5638 5636 5636 5634 5632 5629 5626 5623 5620 5617 5614 5611 5608 5605 5602 5600 5597 5594 5592
5626 5626 5626 5627 5634 5637 5639 5639 5639 5640 5641 5642 5643 5644 5643 5642 5641 5640 5639 5638 5638 5638 5638 5638 5638 5637 5636 5635 5633 5632 5629 5626 5622 5619 5616 5614 5612 5609 5604 5601 5597 5594 5591 5587
5624 5620 5618 5623 5628 5627 5631 5635 5636 5636 5638 5639 5640 5640 5641 5641 5639 5639 5638 5638 5637 5637 5638 5638 5637 5637 5636 5635 5633 5632 5629 5626 5622 5619 5616 5615 5613 5609 5606 5602 5599 5593 5589 5584